Location: Hurecourt
(47.9030°N, 6.0653°E)
Time: 04:42:55
(UTC+00:00)

Cosmos 1833 Rocket - Pass Details

Date: 14 July 2020
Orbit: 832 x 840 km, 71.0° (Epoch: 06 August)

Event Time Altitude Azimuth Distance (km) Brightness Sun altitude
Exits shadow 00:45:02 19° 145° (SE) 1,876 4.1 -19.0°
Maximum altitude 00:47:43 28° 104° (ESE) 1,522 4.0 -18.9°
Drops below altitude 10° 00:52:25 10° 47° (NE) 2,452 6.0 -18.7°
Sets 00:55:09 0° 36° (NE) 3,392 7.2 -18.5°
